Somerville, NJ

4:10 AM EDT on April 29, 2017 (GMT -0400)
Somerset

Weather History for KSMQ - December, 2013

Change the Weather History Date:

Thursday, December 19, 2013

  Actual Average Record
Temperature  
Mean Temperature 26 °F -  
Max Temperature 43 °F 37 °F 62 °F (1931)
Min Temperature 10 °F 20 °F -6 °F (1932)
Degree Days  
Heating Degree Days 38    
Moisture  
Dew Point 19 °F    
Average Humidity 76    
Maximum Humidity 89    
Minimum Humidity 47    
Precipitation  
Precipitation 0.00 in - - ()
Sea Level Pressure  
Sea Level Pressure 30.12 in    
Wind  
Wind Speed 1 mph (West)    
Max Wind Speed 5 mph    
Max Gust Speed -    
Visibility 9 miles    
Events      
Averages and records for this station are not official NWS values.
T = Trace of Precipitation, MM = Missing Value Source: NWS Daily Summary

Daily Weather History Graph

Daily Weather History Graph

Search for Another Location

Airport or City:

Trip Planner

Search our weather history database for the weather conditions in past years. The results will help you decide how hot, cold, wet, or windy it might be!

Date:

Astronomy

Dec. 19, 2013 Rise Set
Actual Time 7:18 AM EST 4:33 PM EST
Civil Twilight 6:47 AM EST 5:04 PM EST
Nautical Twilight 6:12 AM EST 5:39 PM EST
Astronomical Twilight 5:39 AM EST 6:12 PM EST
Moon 6:58 PM EST (12/19) 8:34 AM EST (12/19)
Length of Visible Light 10h 17m
Length of Day
9h 15m
Waning Gibbous, 95% of the Moon is Illuminated
Dec 19
Waning Gibbous
Dec 25
Last Quarter
Jan 1
New
Jan 7
First Quarter
Jan 15
Full

Hourly Weather History & Observations

Time (EST) Temp. Windchill Dew Point Humidity Pressure Visibility Wind Dir Wind Speed Gust Speed Precip Events Conditions
12:53 AM 15.1 °F - 12.0 °F 88% 30.18 in 5.0 mi Calm Calm - N/A   Clear
1:53 AM 12.9 °F - 10.0 °F 88% 30.19 in 7.0 mi Calm Calm - N/A   Clear
2:53 AM 12.9 °F - 9.0 °F 84% 30.20 in 8.0 mi Calm Calm - N/A   Clear
3:53 AM 10.9 °F 2.9 °F 8.1 °F 88% 30.18 in 8.0 mi NW 4.6 mph - N/A   Clear
4:53 AM 12.0 °F - 8.1 °F 84% 30.18 in 8.0 mi Calm Calm - N/A   Clear
5:53 AM 12.0 °F 5.9 °F 8.1 °F 84% 30.17 in 8.0 mi NW 3.5 mph - N/A   Clear
6:53 AM 10.9 °F - 7.0 °F 84% 30.16 in 8.0 mi Calm Calm - N/A   Clear
7:53 AM 10.9 °F 4.7 °F 8.1 °F 88% 30.15 in 7.0 mi NW 3.5 mph - N/A   Clear
8:53 AM 17.1 °F 11.7 °F 12.9 °F 84% 30.14 in 7.0 mi NW 3.5 mph - N/A   Clear
9:53 AM 23.0 °F - 19.0 °F 85% 30.14 in 7.0 mi Calm Calm - N/A   Clear
10:53 AM 30.9 °F - 21.9 °F 69% 30.12 in 8.0 mi Calm Calm - N/A   Clear
11:53 AM 37.9 °F - 23.0 °F 55% 30.09 in 9.0 mi Calm Calm - N/A   Clear
12:53 PM 39.0 °F 35.7 °F 24.1 °F 55% 30.06 in 10.0 mi South 4.6 mph - N/A   Clear
1:53 PM 43.0 °F - 24.1 °F 47% 30.04 in 10.0 mi Calm Calm - N/A   Clear
2:53 PM 43.0 °F 41.3 °F 25.0 °F 49% 30.04 in 10.0 mi South 3.5 mph - N/A   Clear
3:53 PM 43.0 °F 41.3 °F 25.0 °F 49% 30.05 in 10.0 mi South 3.5 mph - N/A   Clear
4:53 PM 39.0 °F - 26.1 °F 60% 30.06 in 10.0 mi Calm Calm - N/A   Clear
5:53 PM 33.1 °F - 27.0 °F 78% 30.09 in 10.0 mi Calm Calm - N/A   Clear
6:53 PM 32.0 °F - 27.0 °F 82% 30.11 in 10.0 mi Calm Calm - N/A   Clear
7:53 PM 32.0 °F - 27.0 °F 82% 30.12 in 10.0 mi Calm Calm - N/A   Clear
8:53 PM 30.9 °F - 27.0 °F 85% 30.12 in 10.0 mi Calm Calm - N/A   Clear
9:53 PM 30.0 °F - 27.0 °F 88% 30.12 in 10.0 mi Calm Calm - N/A   Clear
10:53 PM 30.0 °F 26.5 °F 26.1 °F 85% 30.11 in 10.0 mi WNW 3.5 mph - N/A   Clear
11:53 PM 28.9 °F - 26.1 °F 89% 30.11 in 10.0 mi Calm Calm - N/A   Clear